Regional Weather Roundup
Issued by NWS Cleveland, OH

Home | Current Version | Previous Version | Text Only | Print | Product List | Glossary Off
Versions: 1 2 3 4 5 6 7 8 9 10 11 12 13 14 15 16 17 18 19 20 21 22 23 24 25 26 27 28 29 30 31 32 33 34 35 36 37 38 39 40 41 42 43 44 45 46 47 48 49 50

930
ASUS41 KCLE 180600
RWRCLE
OHIO REGIONAL WEATHER ROUNDUP
NATIONAL WEATHER SERVICE WILMINGTON, OH
100 AM EST SUN FEB 18 2018

NOTE: "FAIR" INDICATES FEW OR NO CLOUDS BELOW 12,000 FEET WITH NO
SIGNIFICANT WEATHER AND/OR OBSTRUCTIONS TO VISIBILITY.

OHZ001>008-015>018-024>027-034-035-043-044-180700-
   NORTHWEST OHIO

CITY           SKY/WX    TMP DP  RH WIND       PRES   REMARKS
DEFIANCE       CLOUDY    33  29  85 W8        30.10R WCI  26
FINDLAY        CLOUDY    34  29  82 W16       30.09R WCI  24
TOLEDO EXPRESS CLOUDY    32  32 100 W9        30.08R WCI  24
TOLEDO EXEC    CLOUDY    33  31  92 W9        30.08R FOG     WCI  25
LIMA           CLOUDY    33  30  88 W14       30.10R WCI  23
$$

OHZ009>014-019>023-028>033-038-089-180700-
   NORTHEAST OHIO

CITY           SKY/WX    TMP DP  RH WIND       PRES   REMARKS
CLE-HOPKINS    LGT SNOW  33  31  92 W3        30.07R
CLE-LAKEFRONT  LGT SNOW  32  30  92 W10       30.05R FOG     WCI  24
CUY CO. ARPT   NOT AVBL
LORAIN-ELYRIA  LGT SNOW  32  28  85 NW12      30.06R FOG     WCI  23
ASHTABULA      CLOUDY    30  29  96 W3        30.04R
AKRON-CANTON   LGT SNOW  33  30  88 SW5       30.02R VSB 1   WCI  29
WOOSTER        NOT AVBL
MANSFIELD      CLOUDY    33  31  92 W13G21    30.04R WCI  24
YOUNGSTOWN     LGT SNOW  31  29  92 SW7       30.01R FOG     WCI  24
$$

OHZ042-051>053-060>062-070>072-077>081-180700-
  SOUTHWEST OHIO

CITY           SKY/WX    TMP DP  RH WIND       PRES   REMARKS
CINC-COVINGTON CLOUDY    36  34  92 W13       30.20R
CINC-LUNKEN    CLOUDY    38  33  82 W12       30.22R
HAMILTON       CLOUDY    36  35  96 W10G20    30.21R
DAYTON         NOT AVBL
WRIGHT-PAT AFB NOT AVBL
DAYTON GENERAL CLOUDY    36  29  75 W13G23    30.16R
WILMINGTON     CLOUDY    35  33  92 W15       30.15R WCI  25
$$

OHZ036-037-039>041-045>050-054>059-063>069-073>076-082>088-180700-
  CENTRAL AND SOUTHEAST OHIO

CITY           SKY/WX    TMP DP  RH WIND       PRES   REMARKS
COLUMBUS       CLOUDY    36  33  89 W15       30.10R
OSU AIRPORT    CLOUDY    35  33  92 W14G22    30.10R WCI  26
BOLTON FIELD   NOT AVBL
RICKENBACK AFB NOT AVBL
NEWARK         CLOUDY    35  32  88 W10       30.09R WCI  27
MARION         CLOUDY    34  30  85 W14G21    30.08R WCI  25
LANCASTER      CLOUDY    36  33  89 W14       30.12R
ZANESVILLE     CLOUDY    35  32  88 W13       30.09R WCI  26
NEW PHILLY     CLOUDY    34  32  92 SW6       30.06R WCI  29
$$




USA.gov is the U.S. government's official web portal to all federal, state and local government web resources and services.